Location: Unspecified
(0.0000°N, 0.0000°E)
Time: 13:35:13
(UTC+00:00)

Vanguard 1 - All Passes

Search period start: 21 October 2014 00:00
Search period end: 31 October 2014 00:00
Orbit: 652 x 3835 km, 34.2° (Epoch: 19 October)

Date Brightness Start Highest point End Pass type
(mag) Time Alt. Az. Time Alt. Az. Time Alt. Az.
21 Oct - 02:06:56 10° SSW 02:18:40 22° SSE 02:26:38 10° ESE visible
21 Oct - 04:32:18 10° SW 04:43:52 56° SSE 04:50:11 10° ENE visible
21 Oct - 06:58:55 10° W 07:04:20 23° NW 07:08:19 10° N daylight
21 Oct - 14:11:22 10° N 14:17:17 18° NE 14:25:28 10° ENE daylight
21 Oct - 16:28:09 10° NW 16:39:46 70° NE 17:00:34 10° ESE daylight
21 Oct - 18:50:09 10° WNW 19:05:53 52° SSW 19:28:28 10° SE visible
21 Oct - 21:20:29 10° WSW 21:37:07 25° SSW 21:54:01 10° SSE visible
21 Oct - 23:58:58 10° SW 00:11:39 18° S 00:21:46 10° SE visible
22 Oct - 02:28:42 10° SSW 02:41:42 28° SSE 02:49:50 10° ESE visible
22 Oct - 04:54:16 10° SW 05:05:42 83° SE 05:11:50 10° ENE visible
22 Oct - 07:23:17 10° WNW 07:25:43 12° NW 07:27:50 10° NNW daylight
22 Oct - 14:31:27 10° NNW 14:38:58 26° NE 14:50:44 10° E daylight
22 Oct - 16:49:34 10° NW 17:01:37 88° NE 17:23:14 10° SE daylight
22 Oct - 19:12:57 10° W 19:28:49 42° SSW 19:50:21 10° SE visible
22 Oct - 21:45:42 10° WSW 22:01:23 22° SSW 22:16:31 10° SSE visible
23 Oct - 00:22:30 10° SSW 00:35:47 19° S 00:45:50 10° SE visible
23 Oct - 02:50:25 10° SW 03:04:25 36° SSE 03:12:33 10° E visible
23 Oct - 05:16:33 10° WSW 05:27:15 65° NW 05:33:10 10° NE visible
23 Oct - 14:52:02 10° NNW 15:00:30 38° NE 15:15:00 10° ESE daylight
23 Oct - 17:11:14 10° WNW 17:23:42 74° SW 17:45:34 10° SE daylight
23 Oct - 19:36:17 10° W 19:52:05 34° SSW 20:12:17 10° SE visible
23 Oct - 22:11:02 10° SW 22:25:55 20° S 22:39:37 10° SSE visible
24 Oct - 00:45:12 10° SSW 00:59:35 22° SSE 01:09:46 10° ESE visible
24 Oct - 03:12:12 10° SW 03:26:51 48° SSE 03:34:49 10° ENE visible
24 Oct - 05:39:17 10° WSW 05:48:36 41° NW 05:54:10 10° NNE daylight
24 Oct - 15:12:55 10° NNW 15:21:58 52° NE 15:38:34 10° ESE daylight
24 Oct - 17:33:12 10° WNW 17:46:03 59° SSW 18:07:41 10° SE visible
24 Oct - 20:00:10 10° WSW 20:15:43 28° SSW 20:34:23 10° SSE visible
24 Oct - 22:35:57 10° SW 22:50:34 19° S 23:03:21 10° SE visible
25 Oct - 01:07:25 10° SSW 01:23:01 27° SSE 01:33:19 10° ESE visible
25 Oct - 03:34:09 10° SW 03:49:00 67° SSE 03:56:43 10° ENE visible
25 Oct - 06:02:37 10° W 06:09:53 25° NW 06:14:46 10° NNE daylight
25 Oct - 13:18:12 10° NNE 13:22:13 14° NE 13:27:22 10° ENE daylight
25 Oct - 15:34:03 10° NW 15:43:32 71° NE 16:01:34 10° ESE daylight
25 Oct - 17:55:32 10° W 18:08:42 47° SSW 18:29:40 10° SE visible
25 Oct - 20:24:36 10° WSW 20:39:45 24° SSW 20:56:50 10° SSE visible
25 Oct - 23:00:03 10° SW 23:15:06 20° S 23:27:35 10° SE visible
26 Oct - 01:29:24 10° SW 01:46:07 34° SSE 01:56:23 10° E visible
26 Oct - 03:56:21 10° SW 04:10:50 89° NW 04:18:18 10° NE visible
26 Oct - 06:26:59 10° WNW 06:31:14 15° NW 06:34:37 10° N daylight
26 Oct - 13:37:52 10° N 13:43:45 23° NE 13:52:38 10° E daylight
26 Oct - 15:55:26 10° NW 16:05:18 88° SW 16:24:10 10° SE daylight
26 Oct - 18:18:17 10° W 18:31:39 38° SSW 18:51:38 10° SE visible
26 Oct - 20:49:24 10° SW 21:04:09 21° S 21:19:49 10° SE visible
26 Oct - 23:23:17 10° SSW 23:39:21 22° SSE 23:51:52 10° ESE visible
27 Oct - 01:51:18 10° SW 02:08:53 44° SSE 02:18:59 10° E visible
27 Oct - 04:18:53 10° WSW 04:32:25 63° NW 04:39:35 10° NE visible
27 Oct - 13:58:18 10° NNW 14:05:08 35° NE 14:16:43 10° ESE daylight
27 Oct - 16:17:06 10° WNW 16:27:19 68° SW 16:46:27 10° SE daylight
27 Oct - 18:41:33 10° WSW 18:54:57 31° SSW 19:13:41 10° SE visible
27 Oct - 21:14:09 10° SW 21:28:49 20° S 21:43:31 10° SE visible
27 Oct - 23:45:53 10° SSW 00:03:13 27° SSE 00:15:53 10° ESE visible
28 Oct - 02:13:15 10° SW 02:31:22 57° SSE 02:41:11 10° ENE visible
28 Oct - 04:41:51 10° WSW 04:53:49 43° NW 05:00:34 10° NNE visible
28 Oct - 14:19:07 10° NNW 14:26:30 51° NE 14:40:04 10° ESE daylight
28 Oct - 16:39:04 10° WNW 16:49:38 53° SSW 17:08:31 10° SE daylight
28 Oct - 19:05:19 10° WSW 19:18:37 26° SSW 19:35:59 10° SSE visible
28 Oct - 21:38:26 10° SW 21:53:33 20° S 22:07:52 10° SE visible
29 Oct - 00:08:05 10° SW 00:26:43 32° SSE 00:39:25 10° E visible
29 Oct - 02:35:22 10° SW 02:53:32 75° SE 03:03:01 10° ENE visible
29 Oct - 05:05:26 10° W 05:15:08 28° NW 05:21:13 10° NNE visible
29 Oct - 12:25:35 10° NNE 12:27:28 11° NE 12:29:35 10° ENE daylight
29 Oct - 14:40:14 10° NW 14:47:58 73° NE 15:02:54 10° ESE daylight
29 Oct - 17:01:25 10° W 17:12:15 41° SSW 17:30:28 10° SE daylight
29 Oct - 19:29:32 10° SW 19:42:40 22° S 19:58:46 10° SSE visible
29 Oct - 22:01:58 10° SSW 22:18:07 22° S 22:32:33 10° SE visible
30 Oct - 00:30:06 10° SW 00:49:51 40° SSE 01:02:26 10° E visible
30 Oct - 02:57:44 10° SW 03:15:25 84° NW 03:24:33 10° NE visible
30 Oct - 05:29:53 10° W 05:36:32 18° NW 05:41:20 10° N daylight
30 Oct - 12:44:24 10° N 12:48:56 20° NE 12:55:18 10° E daylight
30 Oct - 15:01:38 10° WNW 15:09:40 82° SW 15:25:20 10° SE daylight
30 Oct - 17:24:12 10° W 17:35:10 33° SSW 17:52:24 10° SE daylight
30 Oct - 19:53:57 10° SW 20:07:04 20° S 20:22:14 10° SE visible
30 Oct - 22:24:49 10° SSW 22:42:23 25° SSE 22:57:08 10° ESE visible
